Selinsgrove, PA

4:13 AM EDT on June 25, 2017 (GMT -0400)
Penn Valley

Weather History for KSEG - November, 2013

Change the Weather History Date:

Tuesday, November 26, 2013

  Actual Average (KIPT) Record (KIPT)
Temperature  
Mean Temperature 31 °F -  
Max Temperature 34 °F 45 °F 68 °F (1979)
Min Temperature 28 °F 29 °F 4 °F (1938)
Degree Days  
Heating Degree Days 34    
Moisture  
Dew Point 27 °F    
Average Humidity 86    
Maximum Humidity 96    
Minimum Humidity 40    
Precipitation  
Precipitation 1.47 in - - ()
Sea Level Pressure  
Sea Level Pressure 30.13 in    
Wind  
Wind Speed 2 mph (NNE)    
Max Wind Speed 9 mph    
Max Gust Speed -    
Visibility 3 miles    
Events Rain , Snow    
Averages and records for this station are not official NWS values.
T = Trace of Precipitation, MM = Missing Value Source: NWS Daily Summary

Daily Weather History Graph

Daily Weather History Graph

Search for Another Location

Airport or City:

Trip Planner

Search our weather history database for the weather conditions in past years. The results will help you decide how hot, cold, wet, or windy it might be!

Date:

Astronomy

Nov. 26, 2013 Rise Set
Actual Time 7:07 AM EST 4:42 PM EST
Civil Twilight 6:37 AM EST 5:12 PM EST
Nautical Twilight 6:03 AM EST 5:46 PM EST
Astronomical Twilight 5:30 AM EST 6:18 PM EST
Moon 12:06 AM EST (11/26) 12:50 PM EST (11/26)
Length of Visible Light 10h 35m
Length of Day
9h 34m
Last Quarter, 41% of the Moon is Illuminated
Nov 26
Last Quarter
Dec 2
New
Dec 9
First Quarter
Dec 17
Full
Dec 25
Last Quarter

Hourly Weather History & Observations

Time (EST) Temp. Windchill Dew Point Humidity Pressure Visibility Wind Dir Wind Speed Gust Speed Precip Events Conditions
12:53 AM 33.1 °F 28.7 °F 10.9 °F 40% 30.29 in 10.0 mi SSW 4.6 mph - N/A   Overcast
1:53 AM 33.1 °F - 10.9 °F 40% 30.26 in 10.0 mi Calm Calm - N/A   Overcast
2:53 AM 32.0 °F 28.7 °F 12.9 °F 45% 30.27 in 10.0 mi Variable 3.5 mph - N/A   Overcast
3:53 AM 32.0 °F - 12.9 °F 45% 30.27 in 10.0 mi Calm Calm - N/A   Overcast
4:53 AM 30.9 °F - 19.0 °F 61% 30.27 in 5.0 mi Calm Calm - 0.00 in Snow Light Snow
5:53 AM 28.9 °F - 21.9 °F 75% 30.28 in 3.0 mi Calm Calm - 0.01 in Snow Light Snow
6:04 AM 28.9 °F - 21.9 °F 75% 30.28 in 3.0 mi Calm Calm - 0.00 in Snow Light Snow
6:11 AM 28.9 °F - 21.9 °F 75% 30.28 in 2.0 mi Calm Calm - 0.00 in Snow Light Snow
6:20 AM 28.9 °F - 23.0 °F 78% 30.28 in 5.0 mi Calm Calm - 0.00 in Snow Light Snow
6:27 AM 28.9 °F 25.2 °F 23.0 °F 78% 30.27 in 9.0 mi North 3.5 mph - 0.00 in   Overcast
6:53 AM 28.9 °F - 23.0 °F 78% 30.27 in 10.0 mi Calm Calm - 0.00 in   Overcast
7:53 AM 30.0 °F - 24.1 °F 79% 30.29 in 10.0 mi Calm Calm - N/A   Overcast
8:38 AM 30.0 °F 26.5 °F 24.1 °F 79% 30.28 in 2.0 mi ENE 3.5 mph - 0.00 in Snow Light Snow
8:46 AM 30.0 °F 25.2 °F 24.1 °F 79% 30.27 in 1.8 mi NE 4.6 mph - 0.00 in Snow Light Snow
8:53 AM 30.0 °F 25.2 °F 25.0 °F 82% 30.29 in 1.2 mi NNE 4.6 mph - 0.00 in Snow Light Snow
9:00 AM 28.9 °F 25.2 °F 25.0 °F 85% 30.27 in 1.0 mi North 3.5 mph - 0.01 in Snow Light Snow
9:07 AM 28.9 °F 23.9 °F 25.0 °F 85% 30.27 in 0.8 mi NNE 4.6 mph - 0.01 in Snow Light Snow
9:53 AM 28.9 °F 25.2 °F 26.1 °F 89% 30.29 in 0.8 mi SE 3.5 mph - 0.03 in Snow Light Snow
9:58 AM 28.9 °F - 26.1 °F 89% 30.27 in 1.0 mi Calm Calm - 0.00 in Snow Light Snow
10:32 AM 28.9 °F - 27.0 °F 92% 30.26 in 0.8 mi Calm Calm - 0.02 in Snow Light Snow
10:43 AM 30.0 °F - 27.0 °F 88% 30.26 in 0.8 mi Calm Calm - 0.02 in Snow Light Snow
10:53 AM 30.0 °F - 27.0 °F 88% 30.26 in 1.0 mi Calm Calm - 0.03 in Snow Light Snow
11:06 AM 30.0 °F - 27.0 °F 88% 30.24 in 0.8 mi Calm Calm - 0.00 in Snow Light Snow
11:15 AM 30.0 °F - 27.0 °F 88% 30.24 in 1.0 mi Calm Calm - 0.01 in Snow Light Snow
11:30 AM 30.0 °F - 27.0 °F 88% 30.23 in 1.0 mi Calm Calm - 0.01 in Snow Light Snow
11:42 AM 30.0 °F - 28.0 °F 92% 30.22 in 0.8 mi Calm Calm - 0.02 in Snow Light Snow
11:49 AM 30.2 °F - 28.4 °F 93% 30.21 in 0.8 mi Calm Calm - 0.03 in Snow Light Snow
11:53 AM 30.0 °F - 28.0 °F 92% 30.23 in 0.8 mi Calm Calm - 0.03 in Snow Light Snow
12:08 PM 30.0 °F - 27.0 °F 88% 30.20 in 0.8 mi Calm Calm - 0.01 in Snow Light Snow
12:15 PM 30.0 °F - 28.0 °F 92% 30.19 in 1.0 mi Calm Calm - 0.01 in Snow Light Snow
12:38 PM 30.9 °F - 28.0 °F 89% 30.18 in 2.0 mi Calm Calm - 0.03 in Snow Light Snow
12:53 PM 30.9 °F - 28.0 °F 89% 30.19 in 3.0 mi Calm Calm - 0.03 in   Overcast
1:20 PM 30.9 °F - 28.0 °F 89% 30.16 in 3.0 mi Calm Calm - 0.01 in   Overcast
1:29 PM 30.9 °F - 28.0 °F 89% 30.15 in 2.5 mi Calm Calm - 0.02 in   Overcast
1:53 PM 30.9 °F - 28.0 °F 89% 30.16 in 2.5 mi Calm Calm - 0.03 in Rain Light Freezing Rain
2:13 PM 30.9 °F - 28.0 °F 89% 30.13 in 2.0 mi Calm Calm - 0.03 in Rain Light Freezing Rain
2:25 PM 30.9 °F - 28.0 °F 89% 30.12 in 2.0 mi Calm Calm - 0.04 in Rain Light Freezing Rain
2:51 PM 32.0 °F - 28.4 °F 87% 30.11 in 1.8 mi Calm Calm - 0.06 in Rain Light Freezing Rain
2:53 PM 30.9 °F - 28.9 °F 92% 30.13 in 1.8 mi Calm Calm - 0.06 in Rain Light Freezing Rain
3:03 PM 32.0 °F - 28.9 °F 88% 30.11 in 1.5 mi Calm Calm - 0.01 in Rain Light Freezing Rain
3:40 PM 32.0 °F - 28.9 °F 88% 30.10 in 1.0 mi Calm Calm - 0.04 in Rain Light Freezing Rain
3:53 PM 30.9 °F - 28.9 °F 92% 30.11 in 1.0 mi Calm Calm - 0.06 in   Overcast
4:01 PM 32.0 °F - 30.0 °F 92% 30.10 in 0.8 mi Calm Calm - 0.01 in   Overcast
4:11 PM 32.0 °F - 30.0 °F 92% 30.10 in 1.0 mi Calm Calm - 0.02 in   Overcast
4:23 PM 32.0 °F - 30.0 °F 92% 30.09 in 1.0 mi Calm Calm - 0.03 in   Overcast
4:44 PM 32.0 °F - 30.0 °F 92% 30.09 in 2.0 mi Calm Calm - 0.05 in   Overcast
4:53 PM 32.0 °F - 30.0 °F 92% 30.10 in 2.0 mi Calm Calm - 0.06 in   Overcast
5:00 PM 32.0 °F - 30.0 °F 92% 30.09 in 1.8 mi Calm Calm - 0.01 in   Overcast
5:34 PM 32.0 °F - 30.9 °F 96% 30.09 in 1.2 mi Calm Calm - 0.06 in   Overcast
5:49 PM 32.0 °F - 30.2 °F 93% 30.08 in 1.2 mi Calm Calm - 0.09 in   Overcast
5:53 PM 32.0 °F - 30.9 °F 96% 30.09 in 1.2 mi Calm Calm - 0.10 in   Overcast
6:07 PM 32.0 °F - 30.9 °F 96% 30.07 in 1.5 mi Calm Calm - 0.03 in   Overcast
6:23 PM 32.0 °F - 30.9 °F 96% 30.06 in 1.2 mi Calm Calm - 0.06 in   Overcast
6:45 PM 33.1 °F 28.7 °F 30.9 °F 92% 30.04 in 2.5 mi NE 4.6 mph - 0.11 in Rain Rain
6:53 PM 33.1 °F 30.0 °F 30.9 °F 92% 30.04 in 2.5 mi NE 3.5 mph - 0.13 in Rain Rain
7:10 PM 33.1 °F 30.0 °F 30.9 °F 92% 30.03 in 3.0 mi North 3.5 mph - 0.04 in Rain Rain
7:22 PM 33.1 °F 28.7 °F 30.9 °F 92% 30.02 in 2.5 mi North 4.6 mph - 0.07 in Rain Rain
7:29 PM 33.1 °F 28.7 °F 30.9 °F 92% 30.01 in 3.0 mi NNE 4.6 mph - 0.08 in Rain Rain
7:37 PM 33.1 °F 28.7 °F 30.9 °F 92% 29.99 in 3.0 mi NE 4.6 mph - 0.09 in Rain Rain
7:53 PM 33.1 °F 28.7 °F 30.9 °F 92% 29.99 in 4.0 mi NNE 4.6 mph - 0.12 in Rain Rain
8:12 PM 33.1 °F 30.0 °F 30.9 °F 92% 29.95 in 4.0 mi NE 3.5 mph - 0.03 in Rain Rain
8:53 PM 33.1 °F 30.0 °F 32.0 °F 96% 29.91 in 3.0 mi NNE 3.5 mph - 0.11 in Rain Rain
9:53 PM 33.1 °F 26.9 °F 32.0 °F 96% 29.82 in 2.5 mi North 6.9 mph - 0.14 in Rain Heavy Rain
10:53 PM 34.0 °F 28.0 °F 32.0 °F 92% 29.74 in 1.8 mi NNW 6.9 mph - 0.27 in Rain Heavy Rain
11:06 PM 33.1 °F 26.9 °F 32.0 °F 96% 29.71 in 2.5 mi NNW 6.9 mph - 0.05 in Rain Heavy Rain
11:37 PM 33.1 °F 26.9 °F 32.0 °F 96% 29.64 in 2.0 mi NNW 6.9 mph - 0.19 in Rain Heavy Rain
11:53 PM 34.0 °F 26.6 °F 32.0 °F 92% 29.67 in 2.0 mi WNW 9.2 mph - 0.26 in Rain Heavy Rain